Torna al catalogo

CZ-4 DEB

AttivoSSO
NORAD 35567·DEBRIS·🇨🇳 China

Lanciato Sep 19, 2007 da Taiyuan Satellite Launch Center

Loading…

Prossimi Passaggi (prossime 24 ore)

TLE

In scadenzaSource: Space-Track

Epoca: Sep 6, 2026, 14:23 UTC

1 35567U 07042G   26249.59964990  .00000424  00000-0  22420-3 0  9996
2 35567  98.8856 208.9546 0014275 321.2455  38.7696 14.19074563674339

Traccia CZ-4 DEB in tempo reale con AllMySat

Download on the App Store